Location: Six Mile Lake
(44.9000°N, 79.7170°W)
Time: 14:14:47
(UTC-05:00)

X-37B - Visible Passes

Search period start: 22 January 2022 00:00
Search period end: 01 February 2022 00:00
Orbit: 334 x 337 km, 45.0° (Epoch: 11 January)

Date Brightness Start Highest point End Pass type
(mag) Time Alt. Az. Time Alt. Az. Time Alt. Az.
26 Jan 2.8 18:23:11 10° SSE 18:24:09 11° SE 18:24:58 10° SE visible
27 Jan 1.8 18:41:56 10° SSW 18:44:19 24° SSE 18:44:42 23° SE visible
28 Jan 0.9 19:01:51 10° WSW 19:04:24 46° S 19:04:24 46° S visible
29 Jan 1.8 19:22:09 10° WSW 19:24:02 37° WSW 19:24:02 37° WSW visible
30 Jan 0.9 18:07:17 10° WSW 18:10:01 47° SSE 18:12:26 13° E visible
30 Jan 3.1 19:42:36 10° W 19:43:39 20° W 19:43:39 20° W visible
31 Jan 0.3 18:27:35 10° WSW 18:30:25 79° S 18:32:02 23° E visible
31 Jan 4.0 20:03:04 10° W 20:03:15 11° W 20:03:15 11° W visible
